Miscellaneous Local Product
Issued by NWS Hastings, NE

Home | Current Version | Previous Version | Graphics & Text | Print | Product List | Glossary On
Versions: 1 2 3 4 5 6 7 8 9 10 11 12 13 14 15 16 17 18 19 20 21 22 23 24 25 26 27 28 29 30 31 32 33 34 35 36 37 38 39 40 41 42 43 44 45 46 47 48 49 50
000
AXUS43 KGID 241402
MISGRI

GID CWA HOURLY WEATHER ROUNDUP
NATIONAL WEATHER SERVICE HASTINGS NE
900 AM CDT FRI OCT 24 2014

NOTE: "FAIR" INDICATES FEW OR NO CLOUDS BELOW 12,000 FEET WITH NO
SIGNIFICANT WEATHER AND/OR OBSTRUCTIONS TO VISIBILITY.

...SOUTH CENTRAL NEBRASKA...

CITY           SKY/WX    TMP DP  RH WIND       PRES   REMARKS
GRAND ISLAND   CLOUDY    57  53  86 W8        29.94R FOG
HASTINGS         N/A     55  51  86 SW8       29.95R FOG
KEARNEY        CLOUDY    54  50  87 SW10      29.96S
ORD            CLOUDY    45  44  97 NW5       29.93R FOG
YORK           PTSUNNY   57  55  94 SW7       29.94R FOG
AURORA         CLOUDY    55  55 100 SW6       29.94R FOG
LEXINGTON      CLOUDY    49  47  91 W5        29.98R
HOLDREGE       CLOUDY    54  51  90 CALM      29.98R FOG
HEBRON           N/A     58  56  92 SW8       29.97S FOG

...NEBRASKA PANHANDLE...

CITY           SKY/WX    TMP DP  RH WIND       PRES   REMARKS
CHADRON        CLOUDY    49  37  63 SW9       30.00R
ALLIANCE       CLOUDY    50  36  58 W10       30.03R
SCOTTSBLUFF    CLOUDY    51  37  58 NW7       30.06R
SIDNEY         CLOUDY    49  36  61 W7        30.08R

...WESTERN AND NORTH CENTRAL NEBRASKA...

CITY           SKY/WX    TMP DP  RH WIND       PRES   REMARKS
VALENTINE      CLOUDY    42  36  79 W8        29.94R
AINSWORTH      CLOUDY    46  37  70 CALM      29.94R
ONEILL         CLOUDY    49  46  88 W5        29.92R
BROKEN BOW     CLOUDY    53  44  71 CALM      29.95R
IMPERIAL       MOCLDY    47  38  71 W6        30.03R
NORTH PLATTE   CLOUDY    42  39  89 NW5       30.00R
MCCOOK         CLOUDY    49  45  86 W10       30.01R

...EASTERN NEBRASKA...

CITY           SKY/WX    TMP DP  RH WIND       PRES   REMARKS
NORFOLK        CLOUDY    54  53  97 CALM      29.91R FOG
SO SIOUX CITY  CLOUDY    52  50  93 SE3       29.90R
TEKAMAH        CLOUDY    60  57  89 S6        29.91R FOG
COLUMBUS       CLOUDY    57  52  82 SW5       29.93S
ALBION         PTSUNNY   52  50  92 NW5       29.92R FOG
OMAHA EPPLEY   CLOUDY    60  57  89 S14       29.93S FOG
OFFUTT AFB     CLOUDY    60  60 100 S12       29.93F
MILLARD        CLOUDY    59  57  93 SE6       29.93S FOG
LINCOLN        CLOUDY    60  57  89 S6        29.95R FOG
NEBRASKA CITY  CLOUDY    58  58 100 S10       29.97R FOG
BEATRICE       CLOUDY    59  58  98 SW9       29.97S FOG
FALLS CITY     CLOUDY    59  57  93 S9        29.99S FOG

...NORTHERN KANSAS...

CITY           SKY/WX    TMP DP  RH WIND       PRES   REMARKS
GOODLAND       CLEAR     53  41  63 W10       30.08R
HILL CITY      CLOUDY    54  52  93 W6        30.01R FOG
NORTON         SUNNY     54  48  82 SW7       30.00R
PHILLIPSBURG   FOG       52  52 100 CALM      30.00R VSB 1/4
SMITH CENTER   FOG       48  48 100 CALM      30.00R VSB 0
BELOIT         MOSUNNY   55  55 100 SE3       29.99S
HAYS           MOSUNNY   54  48  82 CALM      30.03R
RUSSELL        PTSUNNY   57  55  93 S12       30.01R FOG
CONCORDIA      PTSUNNY   59  59 100 SW9       29.99S FOG
SALINA         MOSUNNY   59  57  93 S6        30.02S FOG
TOPEKA         CLOUDY    60  59  96 S6        30.04R FOG



USA.gov is the U.S. government's official web portal to all federal, state and local government web resources and services.